GW1734 Weather Reports


time (UTC)temp
F
wind
direction
speed
knots
gust
knots
rain 1hr
in
rain 24hr
in
rain mn
in
humidity
%
barometer
mb
20260507064925 52 296 0.0 0.0 0.00 0.00 0.00 90 1021.8
20260507064423 52 305 0.0 0.0 0.00 0.00 0.00 90 1021.7
20260507063921 51 318 0.0 0.0 0.00 0.00 0.00 91 1021.9
20260507063417 51 3 0.0 0.0 0.00 0.00 0.00 91 1021.9
20260507062914 51 0 0.0 0.0 0.00 0.00 0.00 91 1021.6
20260507062411 51 319 0.0 0.0 0.00 0.00 0.00 91 1021.7
20260507061909 51 304 0.0 0.0 0.00 0.00 0.00 91 1022.0
20260507061407 51 317 0.0 0.0 0.00 0.00 0.00 91 1021.9
20260507060905 52 295 0.0 0.0 0.00 0.00 0.00 91 1021.9
20260507060401 52 294 0.0 0.0 0.00 0.00 0.00 90 1022.2
20260507055858 52 327 0.0 0.0 0.00 0.00 0.00 91 1021.9
20260507055353 52 355 0.0 0.0 0.00 0.00 0.00 91 1021.9
20260507054850 52 297 0.0 0.0 0.00 0.00 0.00 90 1021.8
20260507054346 52 306 0.0 0.0 0.00 0.00 0.00 90 1021.6
20260507053843 52 334 0.0 0.0 0.00 0.00 0.00 90 1021.9
20260507053341 52 325 0.0 0.0 0.00 0.00 0.00 89 1021.8
20260507052840 52 13 0.0 0.0 0.00 0.00 0.00 89 1022.0
20260507052336 53 317 0.0 0.0 0.00 0.00 0.00 89 1021.8
20260507051834 53 302 0.0 0.0 0.00 0.00 0.00 89 1021.5
20260507051331 53 1 0.0 0.0 0.00 0.00 0.00 88 1021.7
20260507050828 53 350 0.0 0.0 0.00 0.00 0.00 88 1021.8
20260507050324 53 332 0.0 0.0 0.00 0.00 0.00 87 1021.9
20260507045821 53 25 0.0 0.0 0.00 0.00 0.00 88 1021.8
20260507045318 53 32 0.0 0.0 0.00 0.00 0.00 88 1021.5
20260507044815 53 352 0.0 0.0 0.00 0.00 0.00 88 1021.7
20260507044311 54 293 0.0 0.0 0.00 0.00 0.00 88 1021.6
20260507043807 54 313 0.0 0.0 0.00 0.00 0.00 88 1021.6
20260507043304 54 332 0.0 0.0 0.00 0.00 0.00 88 1021.5
20260507042801 55 12 0.0 0.0 0.00 0.00 0.00 87 1021.5
20260507042256 55 307 0.0 0.0 0.00 0.00 0.00 87 1021.7
20260507041753 55 333 0.0 0.0 0.00 0.00 0.00 87 1021.7
20260507041250 55 328 0.0 0.0 0.00 0.00 0.00 86 1021.4
20260507040747 56 318 0.0 0.0 0.00 0.00 0.00 86 1021.4
20260507040243 56 344 0.0 0.0 0.00 0.00 0.00 85 1021.4
20260507035739 56 354 0.0 0.0 0.00 0.00 0.00 85 1021.3
20260507035234 56 344 0.0 0.0 0.00 0.00 0.00 84 1021.1
20260507034733 57 2 0.0 1.7 0.00 0.00 0.00 84 1021.3
20260507034229 57 349 0.0 0.0 0.00 0.00 0.00 84 1021.1
20260507033728 57 324 0.0 0.0 0.00 0.00 0.00 83 1021.0
20260507033225 57 331 0.0 0.0 0.00 0.00 0.00 83 1021.0
20260507032722 57 311 0.0 0.0 0.00 0.00 0.00 83 1020.8
20260507032218 58 0 0.9 1.7 0.00 0.00 0.00 82 1021.0
20260507031715 58 353 0.9 4.3 0.00 0.00 0.00 82 1020.8
20260507031211 58 331 0.0 0.0 0.00 0.00 0.00 82 1020.6
20260507030708 59 329 0.0 0.0 0.00 0.00 0.00 83 1020.7
20260507030206 59 313 0.0 0.0 0.00 0.00 0.00 82 1020.5
20260507025703 59 300 0.0 0.0 0.00 0.00 0.00 82 1020.6
20260507025200 60 302 0.0 0.0 0.00 0.00 0.00 81 1020.4
20260507024658 60 325 0.0 0.0 0.00 0.00 0.00 80 1020.3
20260507024155 60 335 0.0 0.0 0.00 0.00 0.00 80 1020.3
20260507023650 61 293 0.0 0.0 0.00 0.00 0.00 78 1020.4
20260507023148 62 343 0.0 0.0 0.00 0.00 0.00 77 1020.3
20260507022645 62 341 0.0 0.0 0.00 0.00 0.00 78 1020.1
20260507022140 62 326 0.0 0.0 0.00 0.00 0.00 77 1020.3
20260507021637 61 298 0.0 0.0 0.00 0.00 0.00 78 1020.3
20260507021132 62 318 0.0 0.0 0.00 0.00 0.00 78 1020.1
20260507020631 63 339 0.0 0.0 0.00 0.00 0.00 76 1019.9
20260507020127 64 306 0.0 0.0 0.00 0.00 0.00 75 1020.4
20260507015625 64 302 0.0 0.0 0.00 0.00 0.00 74 1020.0
20260507015122 65 296 0.0 0.0 0.00 0.00 0.00 73 1020.1
20260507014619 65 310 0.0 0.0 0.00 0.00 0.00 75 1020.3
20260507014115 65 299 0.0 0.0 0.00 0.00 0.00 73 1020.1
20260507013612 65 359 0.0 0.0 0.00 0.00 0.00 73 1020.3
20260507013109 65 332 0.0 0.0 0.00 0.00 0.00 74 1020.2
20260507012606 66 319 0.0 0.0 0.00 0.00 0.00 76 1020.1
20260507012101 66 350 0.0 0.0 0.00 0.00 0.00 74 1020.3
20260507011600 66 345 0.0 0.0 0.00 0.00 0.00 73 1020.1
20260507011055 66 341 0.0 0.0 0.00 0.00 0.00 73 1020.2
20260507010550 66 306 0.0 0.0 0.00 0.00 0.00 74 1020.0
20260507010047 67 345 0.0 0.0 0.00 0.00 0.00 73 1020.1
20260507005544 67 343 0.0 0.0 0.00 0.00 0.00 72 1020.2
20260507005040 66 332 0.0 0.0 0.00 0.00 0.00 74 1020.2
20260507004538 67 350 0.0 0.0 0.00 0.00 0.00 74 1020.1
20260507004035 67 37 0.0 1.7 0.00 0.00 0.00 75 1020.2
20260507003530 68 31 0.0 0.0 0.00 0.00 0.00 73 1020.0
20260507003026 67 319 0.0 0.0 0.00 0.00 0.00 76 1020.1
20260507002522 68 19 0.0 0.0 0.00 0.00 0.00 73 1020.1
20260507002019 69 1 0.0 0.0 0.00 0.00 0.00 73 1019.9
20260507001515 68 328 0.0 0.0 0.00 0.00 0.00 74 1019.9
20260507001013 68 332 0.0 0.0 0.00 0.00 0.00 74 1020.0
20260507000509 69 295 0.0 0.0 0.00 0.00 0.00 71 1020.0
20260507000005 70 321 0.0 0.0 0.00 0.00 0.00 70 1020.0
20260506235502 68 302 0.0 0.0 0.00 0.00 0.00 72 1019.8
20260506234958 68 33 0.0 0.0 0.00 0.00 0.00 75 1020.1
20260506234455 68 86 0.0 0.0 0.00 0.00 0.00 73 1019.9
20260506233952 67 0 0.0 0.0 0.00 0.00 0.00 73 1020.1
20260506233449 67 0 0.0 0.0 0.00 0.00 0.00 73 1019.9
20260506232945 68 294 0.0 0.0 0.00 0.00 0.00 74 1020.0
20260506232442 68 48 0.0 0.0 0.00 0.00 0.00 76 1019.9
20260506231937 67 331 0.0 0.0 0.00 0.00 0.00 74 1019.9
20260506231436 67 339 0.0 0.0 0.00 0.00 0.00 75 1020.2
20260506230932 67 14 0.0 0.0 0.00 0.00 0.00 74 1020.3
20260506230428 67 31 0.0 0.0 0.00 0.00 0.00 74 1020.0
20260506225925 67 32 0.0 0.0 0.00 0.00 0.00 76 1020.4
20260506225423 67 318 0.0 0.0 0.00 0.00 0.00 76 1019.9
20260506224920 67 335 0.0 0.0 0.00 0.00 0.00 75 1020.2
20260506224417 67 38 0.0 0.0 0.00 0.00 0.00 74 1020.2
20260506223913 66 316 0.0 0.0 0.00 0.00 0.00 77 1020.1
20260506223408 67 32 0.0 0.0 0.00 0.00 0.00 75 1020.2
20260506222906 67 340 0.0 0.0 0.00 0.00 0.00 77 1020.4
20260506222402 68 39 0.0 0.0 0.00 0.00 0.00 79 1020.4
20260506221900 68 5 0.0 0.0 0.00 0.00 0.00 79 1020.3
20260506221356 68 43 0.0 0.0 0.00 0.00 0.00 77 1020.3
20260506220854 68 78 0.0 0.0 0.00 0.00 0.00 77 1020.2
20260506220349 67 298 0.0 0.0 0.00 0.00 0.00 77 1020.2
20260506215846 68 251 0.0 0.0 0.00 0.00 0.00 77 1020.2
20260506215342 69 207 0.0 0.0 0.00 0.00 0.00 77 1020.1
20260506214838 68 265 0.0 0.0 0.00 0.00 0.00 78 1020.4
20260506214335 68 98 0.0 0.0 0.00 0.00 0.00 77 1020.3
20260506213833 68 273 0.0 0.0 0.00 0.00 0.00 78 1020.3
20260506213330 68 70 0.0 0.0 0.00 0.00 0.00 79 1020.2
20260506212828 68 104 0.0 0.0 0.00 0.00 0.00 78 1020.4
20260506212323 67 230 0.0 0.0 0.00 0.00 0.00 77 1020.3
20260506211818 68 88 0.0 0.0 0.00 0.00 0.00 78 1020.3
20260506211315 67 242 0.0 0.0 0.00 0.00 0.00 78 1020.3
20260506210813 68 71 0.9 1.7 0.00 0.00 0.00 79 1020.4
20260506210309 68 87 0.9 1.7 0.00 0.00 0.00 76 1020.3
20260506205806 68 354 0.0 0.0 0.00 0.00 0.00 76 1020.2
20260506205305 68 83 0.0 0.0 0.00 0.00 0.00 76 1020.5
20260506204758 68 84 0.0 0.0 0.00 0.00 0.00 78 1020.5
20260506204257 68 68 0.0 0.0 0.00 0.00 0.00 79 1020.5
20260506203754 67 94 2.6 5.2 0.00 0.00 0.00 79 1020.5
20260506203251 67 65 0.0 0.0 0.00 0.00 0.00 79 1020.7
20260506202748 67 61 0.0 0.9 0.00 0.00 0.00 80 1020.5
20260506202245 66 92 0.0 0.0 0.00 0.00 0.00 81 1020.5
20260506201741 66 28 0.0 0.0 0.00 0.00 0.00 82 1020.4
20260506201238 65 87 0.0 0.0 0.00 0.00 0.00 81 1020.7
20260506200735 65 65 0.0 0.0 0.00 0.00 0.00 80 1020.7
20260506200232 66 84 0.0 0.0 0.00 0.00 0.00 80 1020.5
20260506195728 67 191 0.0 0.0 0.00 0.00 0.00 79 1020.6
20260506195225 67 91 0.0 0.0 0.00 0.00 0.00 81 1020.5
20260506194722 65 100 0.9 1.7 0.00 0.00 0.00 80 1020.4
20260506194218 65 92 0.0 0.0 0.00 0.00 0.00 82 1020.5
20260506193716 65 134 0.0 0.0 0.00 0.00 0.00 82 1020.6
20260506193213 65 52 0.0 0.0 0.00 0.00 0.00 80 1020.9
20260506192709 64 108 0.0 0.0 0.00 0.00 0.00 82 1020.8
20260506192206 65 71 0.0 0.9 0.00 0.00 0.00 84 1020.8
20260506191703 65 170 0.0 0.0 0.00 0.00 0.00 83 1020.7
20260506191159 64 88 0.0 0.0 0.00 0.00 0.00 83 1020.8
20260506190657 64 91 0.0 0.0 0.00 0.00 0.00 82 1021.0
20260506190153 63 195 0.0 0.0 0.00 0.00 0.00 83 1020.8
20260506185650 63 76 0.0 0.0 0.00 0.00 0.00 85 1020.8
20260506185146 62 214 0.0 0.0 0.00 0.00 0.00 86 1020.7
20260506184644 62 63 0.0 0.0 0.00 0.00 0.00 86 1020.8
20260506184141 62 180 0.0 0.0 0.00 0.00 0.00 85 1020.9
20260506183638 63 53 0.0 0.0 0.00 0.00 0.00 85 1020.9
20260506183134 63 244 0.0 0.0 0.00 0.00 0.00 85 1020.8
20260506182632 62 69 0.0 0.0 0.00 0.00 0.00 85 1020.6
20260506182128 63 92 0.0 0.0 0.00 0.00 0.00 85 1020.7
20260506181626 62 81 0.0 0.0 0.00 0.00 0.00 86 1020.8
20260506181123 62 16 0.0 0.0 0.00 0.00 0.00 86 1020.9
20260506180620 62 101 1.7 2.6 0.00 0.00 0.00 86 1020.6
20260506180116 62 93 0.0 0.0 0.00 0.00 0.00 86 1020.6
20260506175613 63 69 0.0 0.0 0.00 0.00 0.00 86 1020.6
20260506175108 63 66 0.0 0.9 0.00 0.00 0.00 86 1020.5
20260506174608 63 96 0.0 0.0 0.00 0.00 0.00 85 1020.5
20260506174103 62 90 0.0 0.0 0.00 0.00 0.00 85 1020.6
20260506173602 62 80 0.0 0.9 0.00 0.00 0.00 87 1020.5
20260506173058 61 87 0.0 0.0 0.00 0.00 0.00 90 1020.5
20260506172556 60 89 0.0 0.0 0.00 0.00 0.00 88 1020.6
20260506172051 59 100 0.0 0.0 0.00 0.00 0.00 89 1020.7
20260506171549 59 59 0.0 0.0 0.00 0.00 0.00 88 1020.7
20260506171047 59 205 0.0 0.0 0.00 0.00 0.00 88 1020.8
20260506170544 59 68 0.0 0.0 0.00 0.00 0.00 88 1020.8
20260506170041 59 82 0.0 0.0 0.00 0.00 0.00 89 1020.6
20260506165540 59 104 0.0 0.0 0.00 0.00 0.00 88 1020.9
20260506165036 59 90 0.0 0.0 0.00 0.00 0.00 89 1020.7
20260506164533 59 81 0.0 0.0 0.00 0.00 0.00 87 1020.7
20260506164030 59 95 0.0 0.0 0.00 0.00 0.00 89 1020.6
20260506163526 59 63 0.0 0.0 0.00 0.00 0.00 87 1020.6
20260506163021 59 108 0.0 0.0 0.00 0.00 0.00 88 1020.6
20260506162518 60 100 0.0 0.0 0.00 0.00 0.00 88 1020.6
20260506162015 60 282 0.0 0.0 0.00 0.00 0.00 86 1020.6
20260506161513 60 297 0.0 0.0 0.00 0.00 0.00 87 1020.9
20260506161009 59 297 0.0 0.0 0.00 0.00 0.00 87 1020.8
20260506160507 59 310 0.0 0.0 0.00 0.00 0.00 88 1020.7
20260506160004 58 334 0.0 0.0 0.00 0.00 0.00 88 1020.7
20260506155502 57 344 0.0 0.0 0.00 0.00 0.00 89 1020.7
20260506153634 58 336 0.0 0.0 0.00 0.00 0.00 88 1020.4
20260506153131 58 256 0.0 0.0 0.00 0.00 0.00 88 1020.4
20260506152628 58 280 0.0 0.0 0.00 0.00 0.00 88 1020.3
20260506152126 58 235 0.0 0.0 0.00 0.00 0.00 88 1020.3
20260506151624 57 311 0.0 0.0 0.00 0.00 0.00 89 1020.0
20260506151121 57 331 0.0 0.0 0.00 0.00 0.00 89 1020.3
20260506150618 56 310 0.0 0.0 0.00 0.00 0.00 90 1020.3
20260506150115 56 56 0.0 0.0 0.00 0.00 0.00 91 1020.4
20260506145612 56 317 0.0 0.0 0.00 0.00 0.00 91 1020.3
20260506145108 56 328 0.0 0.0 0.00 0.00 0.00 92 1020.4
20260506144605 56 347 0.0 0.0 0.00 0.00 0.00 92 1020.6
20260506144102 55 304 0.0 0.0 0.00 0.00 0.00 93 1020.9
20260506143600 55 345 0.0 0.0 0.00 0.00 0.00 93 1020.9
20260506143058 55 347 0.0 0.0 0.00 0.00 0.00 94 1020.9
20260506142556 55 323 0.0 0.0 0.00 0.00 0.00 94 1020.8
20260506142054 55 321 0.0 0.0 0.00 0.00 0.00 95 1020.8
20260506141551 54 320 0.0 0.0 0.00 0.00 0.00 96 1020.5
20260506141049 54 337 0.0 0.0 0.00 0.00 0.00 98 1020.8
20260506140547 54 353 0.0 0.0 0.00 0.00 0.00 99 1020.5
20260506140044 53 297 0.0 0.0 0.00 0.00 0.00 99 1020.6
20260506135541 53 308 0.0 0.0 0.00 0.00 0.00 99 1020.4
20260506135037 53 287 0.0 0.0 0.00 0.00 0.00 99 1020.4
20260506134533 53 285 0.0 0.0 0.00 0.00 0.00 99 1020.2
20260506134029 53 269 0.0 0.0 0.00 0.00 0.00 99 1020.0
20260506133527 53 285 0.0 0.0 0.00 0.00 0.00 99 1020.0
20260506133023 53 270 0.0 0.0 0.00 0.00 0.00 99 1019.9
20260506132521 52 243 0.0 0.0 0.00 0.00 0.00 99 1020.1
20260506132018 52 292 0.0 0.0 0.00 0.00 0.00 99 1020.2
20260506131515 52 292 0.0 0.0 0.00 0.00 0.00 99 1019.7
20260506131011 52 293 0.0 0.0 0.00 0.00 0.00 99 1020.0
20260506130508 52 289 0.0 0.0 0.00 0.00 0.00 99 1019.8
20260506130006 52 281 0.0 0.0 0.00 0.00 0.00 99 1019.9
20260506125504 52 281 0.0 0.0 0.00 0.00 0.00 99 1019.8
20260506125001 51 281 0.0 0.0 0.00 0.00 0.00 99 1019.6
20260506124459 51 286 0.0 0.0 0.00 0.00 0.00 99 1019.7
20260506123957 51 287 0.0 0.0 0.00 0.00 0.00 99 1019.5
20260506123454 51 298 0.0 0.0 0.00 0.00 0.00 98 1019.5
20260506122952 51 299 0.0 0.0 0.00 0.00 0.00 98 1019.6
20260506122448 51 299 0.0 0.0 0.00 0.00 0.00 98 1019.5
20260506121947 52 306 0.0 0.0 0.00 0.00 0.00 97 1019.3
20260506121444 53 290 0.0 0.0 0.00 0.00 0.00 97 1019.3
20260506120940 53 291 0.0 0.0 0.00 0.00 0.00 95 1019.3
20260506120438 54 273 0.0 0.0 0.00 0.00 0.00 95 1018.9
20260506115935 54 273 0.0 0.0 0.00 0.00 0.00 94 1019.3
20260506115433 55 273 0.0 0.0 0.00 0.00 0.00 94 1019.4
20260506114931 55 273 0.0 0.0 0.00 0.00 0.00 94 1019.0
20260506114428 55 289 0.0 0.0 0.00 0.00 0.00 94 1019.3
20260506113927 55 289 0.0 0.0 0.00 0.00 0.00 94 1019.3
20260506113424 55 276 0.0 0.0 0.00 0.00 0.00 94 1019.1
20260506112921 55 302 0.0 0.0 0.00 0.00 0.00 94 1019.4
20260506112419 56 291 0.0 0.0 0.00 0.00 0.00 94 1019.2
20260506111916 56 294 0.0 0.0 0.00 0.00 0.00 93 1019.0
20260506111414 56 335 0.0 0.0 0.00 0.00 0.00 93 1019.0
20260506110910 56 315 0.0 0.0 0.00 0.00 0.00 93 1019.0
20260506110408 56 319 0.0 0.0 0.00 0.00 0.00 93 1018.9
20260506105905 56 2 0.0 0.0 0.00 0.00 0.00 93 1019.1
20260506105401 56 338 0.0 0.0 0.00 0.00 0.00 93 1019.0
20260506104858 56 321 0.0 0.0 0.00 0.00 0.00 93 1019.0
20260506104356 56 340 0.0 0.0 0.00 0.00 0.00 94 1019.0
20260506103854 56 330 0.0 0.0 0.00 0.00 0.00 94 1018.7
20260506103351 56 356 0.0 0.0 0.00 0.00 0.00 94 1018.6
20260506102848 56 8 0.0 0.9 0.00 0.00 0.00 94 1018.6
20260506102346 56 300 0.0 0.0 0.00 0.00 0.00 94 1018.4
20260506101843 56 319 0.0 0.0 0.00 0.00 0.00 94 1018.6
20260506101339 56 357 0.0 0.0 0.00 0.00 0.00 95 1018.4
20260506100837 56 316 0.0 0.0 0.00 0.00 0.00 95 1018.4
20260506100335 56 313 0.0 0.0 0.00 0.00 0.00 95 1018.4
20260506095833 56 280 0.0 0.0 0.00 0.00 0.00 95 1018.3
20260506095330 56 326 0.0 0.0 0.00 0.00 0.00 95 1018.2
20260506094826 56 300 0.0 0.0 0.00 0.00 0.00 96 1018.2
20260506094326 56 303 0.0 0.0 0.00 0.00 0.00 96 1018.1
20260506093823 56 291 0.0 0.0 0.00 0.00 0.00 96 1018.2
20260506093320 56 296 0.0 0.0 0.00 0.00 0.00 96 1018.2
20260506092818 56 302 0.0 0.0 0.00 0.00 0.00 96 1018.2
20260506092315 56 303 0.0 0.0 0.00 0.00 0.00 96 1018.0
20260506091812 56 305 0.0 0.0 0.00 0.00 0.00 96 1018.0
20260506091310 56 293 0.0 0.0 0.00 0.00 0.00 96 1017.9
20260506090808 56 293 0.0 0.0 0.00 0.00 0.00 96 1018.1
20260506090304 56 285 0.0 0.0 0.00 0.00 0.00 96 1018.4
20260506085801 56 300 0.0 0.0 0.00 0.00 0.00 96 1017.9
20260506085257 56 301 0.0 0.0 0.00 0.00 0.00 96 1017.8
20260506084754 56 304 0.0 0.0 0.00 0.00 0.00 96 1018.0
20260506084250 56 295 0.0 0.0 0.00 0.00 0.00 96 1018.2
20260506083747 56 306 0.0 0.0 0.00 0.00 0.00 97 1017.9
20260506083245 56 311 0.0 0.0 0.00 0.00 0.00 97 1018.2
20260506082742 56 305 0.0 0.0 0.00 0.00 0.00 97 1018.2
20260506082237 55 315 0.0 0.0 0.00 0.00 0.00 98 1017.9
20260506081736 55 307 0.0 0.0 0.00 0.00 0.00 99 1017.9
20260506081233 55 304 0.0 0.0 0.00 0.00 0.00 99 1018.0
20260506080731 55 304 0.0 0.0 0.00 0.00 0.00 99 1018.0
20260506080227 56 291 0.0 0.0 0.00 0.00 0.00 99 1017.8
20260506073211 55 296 0.0 0.0 0.00 0.00 0.00 99 1017.6
20260506072708 55 298 0.0 0.0 0.00 0.00 0.00 99 1017.7
20260506072206 55 300 0.0 0.0 0.00 0.00 0.00 99 1017.4
20260506071703 55 300 0.0 0.0 0.00 0.00 0.00 99 1017.7
20260506071201 55 300 0.0 0.0 0.00 0.00 0.00 99 1017.6
20260506070657 55 300 0.0 0.0 0.00 0.00 0.00 99 1017.4
20260506070154 55 301 0.0 0.0 0.00 0.00 0.00 99 1017.5